Location: Newark
(22.3060°N, 114.2134°E)
Time: 22:31:39
(UTC+00:00)

Vanguard 2 - Pass Details

Date: 03 August 2021
Orbit: 553 x 2937 km, 32.9° (Epoch: 26 September)

Event Time Altitude Azimuth Distance (km) Brightness Sun altitude
Rises 21:01:47 0° 286° (WNW) 2,716 - -12.5°
Exits shadow 21:03:30 - 296° (WNW) 2,094 9.4 -12.2°
Reaches altitude 10° 21:04:18 10° 303° (WNW) 1,827 9.2 -12.0°
Maximum altitude 21:07:30 22° 356° (N) 1,300 9.0 -11.3°
Drops below altitude 10° 21:11:13 10° 49° (NE) 2,150 11.2 -10.5°
Sets 21:14:29 0° 64° (ENE) 3,355 13.2 -9.8°
